Temp
73 74 74 76 75 78 77 77 76 76 76 77 77 77 77 77 77 76 76 77 77 78 78 78 77 77 77 76 76 76 76 76 76 76 76 77 77 77 76 75 74 74 76
76 76 74 76 77 77 76 76 76 76 76 77 77 77 77 77 77 77 76 76 76 77 77 77 77 77 76 75 75 75 75 74 74 75 75 75 76 76 76 75 75 75 76
77 75 75 75 76 76 76 75 75 76 76 77 76 77 77 77 77 77 76 76 76 77 76 76 76 76 75 74 74 75 75 74 74 74 74 71 72 76 76 75 75 76 76
76 77 75 73 75 75 75 75 75 76 76 76 76 76 77 77 77 76 76 76 76 76 76 76 76 75 74 74 74 74 75 75 74 73 72 74 75 76 75 75 75 75 74
78 77 73 73 74 75 75 75 75 75 76 76 76 76 76 76 76 76 76 76 75 76 76 76 75 75 75 74 74 74 74 73 73 74 73 72 70 74 75 74 73 73 72
77 75 71 73 74 75 75 74 75 75 75 75 75 75 75 75 75 75 75 75 75 75 75 75 75 75 74 73 73 73 73 73 72 73 69 69 70 74 74 73 72 72 71
76 73 73 72 73 74 74 74 75 75 75 75 74 75 74 75 74 74 75 74 74 74 74 75 75 73 73 72 72 72 71 71 73 70 69 67 69 73 73 72 72 71 71
75 74 73 69 70 72 73 73 73 74 74 74 74 74 74 74 74 74 74 74 74 74 74 75 74 72 71 71 71 70 70 68 71 69 69 65 70 73 72 72 72 71 71
77 73 72 71 69 69 70 70 71 72 72 72 72 72 71 71 71 72 71 73 73 73 73 74 72 71 71 70 70 69 68 67 66 69 69 65 70 72 72 71 71 71 70
75 76 72 71 71 70 68 67 68 69 70 70 69 68 67 68 69 69 68 71 73 73 72 70 70 70 69 69 68 67 66 66 66 67 65 65 70 71 71 70 70 70 70
73 75 76 72 72 71 69 66 65 66 67 66 65 65 64 67 67 68 66 68 71 72 72 69 68 67 66 66 66 66 65 65 67 65 63 67 70 71 70 70 69 69 69
70 73 74 75 72 72 75 67 68 68 67 67 67 66 67 67 65 67 63 65 67 67 70 70 68 65 63 63 61 64 63 67 66 64 63 68 70 70 69 69 69 69 69
72 69 70 75 74 72 71 68 68 67 67 68 68 67 68 67 64 64 62 62 62 63 63 64 62 62 64 64 63 63 66 66 63 64 64 67 69 70 70 69 68 68 68
71 70 70 70 74 71 70 69 69 68 68 67 67 68 65 63 63 63 62 63 62 62 62 61 61 63 64 65 65 64 65 64 63 63 61 63 67 70 70 70 69 69 68
71 71 70 69 69 70 72 69 69 70 68 68 67 68 66 64 63 64 63 63 63 63 62 61 61 62 62 63 64 64 64 64 64 63 60 60 64 68 70 71 70 70 69
73 71 72 70 71 72 70 68 67 72 72 68 67 67 68 66 64 64 63 63 63 63 62 61 61 60 60 61 62 63 62 62 63 63 62 59 62 65 68 70 71 71 70
72 73 72 71 70 71 70 69 67 67 67 70 70 69 67 67 65 64 63 62 63 63 63 62 61 60 58 60 60 61 61 61 61 61 61 61 60 61 64 68 69 70 71
72 72 73 74 71 71 70 69 69 68 68 67 68 70 68 68 67 64 62 64 65 64 62 59 58 57 56 56 56 57 58 59 59 59 59 59 59 61 61 64 67 68 70
72 72 71 71 69 68 70 69 68 68 67 67 67 67 70 68 67 64 61 61 61 60 58 58 57 56 55 55 56 56 57 56 57 60 58 58 58 59 58 61 62 63 66
71 72 72 71 69 68 69 68 67 66 66 67 67 66 68 69 69 65 63 61 61 58 58 57 57 56 56 57 60 58 55 56 56 56 57 59 58 59 59 59 57 58 60
67 69 70 70 70 68 68 65 64 64 65 65 66 66 67 67 68 67 63 65 64 62 61 60 59 58 57 57 53 54 57 58 61 61 59 58 58 60 57 58 60 60 60
62 64 66 70 70 70 68 67 66 65 65 66 66 66 66 65 66 66 65 65 64 60 59 58 58 55 56 56 54 50 49 51 56 58 60 58 58 56 56 57 59 58 60
57 58 63 66 68 69 67 67 64 63 63 63 64 63 64 64 64 64 64 64 62 60 58 58 58 56 55 53 52 52 47 46 50 56 56 57 57 53 56 57 57 58 58
55 56 58 61 65 67 66 63 63 63 62 63 64 64 63 63 63 63 63 63 61 60 58 58 58 58 55 54 50 52 54 51 47 47 52 53 55 53 54 52 55 56 56
55 55 56 59 62 64 65 64 64 62 62 63 63 63 63 63 63 63 62 61 60 60 59 58 57 56 56 55 53 50 48 49 49 47 47 52 52 53 54 55 54 55 54
53 54 56 57 58 60 62 62 61 63 63 61 60 60 60 60 60 61 61 60 60 60 59 58 57 56 55 55 55 54 51 49 47 46 45 50 51 54 55 54 52 52 53
MSLP
1018.35 1018.85 1019.15 1019.36 1019.66 1019.45 1019.83 1020.05 1020.25 1020.39 1020.46 1020.51 1020.61 1020.78 1020.81 1020.80 1020.83 1020.91 1020.95 1020.92 1020.85 1020.73 1020.89 1021.00 1021.21 1021.23 1021.37 1021.52 1021.50 1021.45 1021.46 1021.47 1021.40 1021.55 1021.51 1021.53 1021.56 1021.64 1021.66 1021.70 1021.63 1021.72 1021.55
1018.25 1018.94 1019.36 1019.47 1019.70 1019.85 1020.13 1020.39 1020.56 1020.62 1020.76 1020.87 1020.95 1021.09 1021.12 1021.15 1021.22 1021.33 1021.32 1021.28 1021.28 1021.42 1021.52 1021.49 1021.58 1021.61 1021.80 1021.96 1021.92 1021.91 1021.90 1021.90 1021.78 1021.81 1021.96 1022.10 1022.08 1022.18 1022.23 1022.29 1022.23 1022.15 1022.25
1018.40 1019.26 1019.54 1019.76 1019.94 1020.28 1020.48 1020.53 1020.82 1020.86 1020.98 1021.14 1021.25 1021.39 1021.33 1021.40 1021.55 1021.60 1021.81 1021.91 1021.90 1021.98 1022.11 1022.15 1022.20 1022.16 1022.34 1022.46 1022.38 1022.43 1022.32 1022.35 1022.36 1022.31 1022.57 1022.81 1022.78 1022.71 1022.73 1022.76 1022.69 1022.65 1022.74
1018.70 1019.28 1019.85 1020.16 1020.37 1020.63 1020.76 1020.83 1021.05 1021.18 1021.38 1021.52 1021.65 1021.66 1021.73 1021.81 1021.87 1022.03 1022.21 1022.30 1022.32 1022.47 1022.58 1022.70 1022.71 1022.83 1022.99 1022.93 1022.96 1022.90 1022.81 1022.81 1022.73 1022.84 1023.04 1023.20 1023.30 1023.26 1023.25 1023.32 1023.30 1023.27 1023.24
1018.67 1019.33 1020.10 1020.37 1020.58 1020.77 1020.88 1021.04 1021.33 1021.53 1021.76 1021.93 1021.92 1021.95 1022.15 1022.21 1022.34 1022.35 1022.52 1022.64 1022.78 1022.79 1022.97 1023.06 1023.22 1023.27 1023.33 1023.46 1023.41 1023.39 1023.34 1023.32 1023.13 1023.37 1023.68 1023.84 1023.89 1023.89 1023.86 1024.02 1023.98 1023.97 1023.98
1018.87 1019.79 1020.38 1020.67 1020.84 1021.07 1021.14 1021.29 1021.41 1021.70 1021.97 1022.22 1022.32 1022.45 1022.58 1022.63 1022.74 1022.83 1022.88 1022.98 1023.18 1023.27 1023.36 1023.49 1023.59 1023.72 1023.87 1023.88 1023.79 1023.77 1023.65 1023.49 1023.68 1023.93 1024.24 1024.38 1024.33 1024.24 1024.37 1024.50 1024.54 1024.49 1024.56
1019.18 1020.12 1020.65 1020.92 1021.13 1021.34 1021.49 1021.62 1021.67 1021.96 1022.24 1022.52 1022.72 1022.80 1022.91 1023.04 1023.12 1023.23 1023.23 1023.35 1023.56 1023.63 1023.69 1023.69 1023.83 1024.10 1024.20 1024.20 1024.14 1024.08 1024.00 1023.88 1023.96 1024.32 1024.66 1024.83 1024.73 1024.72 1024.82 1024.92 1024.93 1024.97 1024.99
1019.27 1020.12 1020.79 1021.20 1021.37 1021.53 1021.80 1021.99 1022.09 1022.34 1022.59 1022.84 1023.07 1023.23 1023.31 1023.46 1023.55 1023.66 1023.62 1023.60 1023.81 1024.01 1023.96 1024.00 1024.20 1024.46 1024.57 1024.64 1024.62 1024.52 1024.41 1024.32 1024.36 1024.61 1024.93 1025.17 1025.05 1024.99 1025.09 1025.19 1025.24 1025.29 1025.42
1019.23 1020.22 1020.94 1021.36 1021.69 1021.80 1022.02 1022.23 1022.40 1022.63 1022.93 1023.16 1023.36 1023.57 1023.70 1023.88 1023.96 1024.08 1024.11 1024.02 1024.08 1024.38 1024.45 1024.49 1024.66 1024.86 1025.00 1025.07 1025.08 1024.87 1024.69 1024.66 1024.68 1024.80 1025.11 1025.41 1025.29 1025.18 1025.19 1025.30 1025.41 1025.48 1025.56
1019.26 1020.08 1020.75 1021.30 1021.68 1021.96 1022.26 1022.51 1022.71 1022.88 1022.99 1023.39 1023.63 1023.81 1023.99 1024.16 1024.31 1024.39 1024.49 1024.54 1024.48 1024.64 1024.88 1025.07 1025.26 1025.37 1025.49 1025.54 1025.52 1025.27 1025.15 1024.96 1025.05 1025.12 1025.29 1025.57 1025.52 1025.49 1025.55 1025.56 1025.64 1025.66 1025.76
1019.20 1019.72 1020.33 1021.04 1021.33 1021.80 1022.26 1022.64 1022.88 1023.09 1023.32 1023.64 1023.90 1023.96 1024.07 1024.18 1024.39 1024.56 1024.77 1024.88 1024.88 1024.98 1025.12 1025.36 1025.60 1025.75 1025.77 1025.75 1025.70 1025.53 1025.50 1025.30 1025.10 1025.45 1025.63 1025.67 1025.72 1025.68 1025.75 1025.71 1025.75 1025.79 1025.81
1019.28 1019.64 1019.86 1020.44 1021.00 1021.48 1021.91 1022.67 1022.93 1023.25 1023.48 1023.62 1023.90 1024.08 1024.13 1024.22 1024.53 1024.77 1024.97 1025.04 1025.10 1025.22 1025.28 1025.40 1025.60 1025.81 1025.84 1025.77 1025.67 1025.54 1025.57 1025.31 1025.38 1025.64 1025.83 1025.90 1025.95 1025.97 1026.04 1026.07 1026.01 1025.98 1025.97
1019.32 1019.77 1020.02 1020.05 1020.59 1021.16 1021.69 1022.37 1022.67 1023.00 1023.18 1023.39 1023.70 1023.90 1024.01 1024.31 1024.56 1024.77 1025.13 1025.25 1025.35 1025.41 1025.52 1025.64 1025.84 1025.77 1025.60 1025.47 1025.64 1025.54 1025.40 1025.37 1025.43 1025.47 1025.63 1025.76 1025.90 1025.93 1026.01 1026.12 1026.17 1026.16 1026.11
1018.88 1019.68 1020.28 1020.32 1020.41 1021.03 1021.50 1021.99 1022.26 1022.72 1022.96 1023.28 1023.52 1023.76 1024.13 1024.46 1024.66 1024.77 1025.02 1025.10 1025.28 1025.36 1025.51 1025.62 1025.72 1025.61 1025.59 1025.54 1025.50 1025.50 1025.40 1025.44 1025.48 1025.43 1025.60 1025.69 1025.84 1025.84 1025.82 1025.90 1026.05 1026.10 1026.14
1018.52 1019.20 1019.95 1020.56 1020.66 1020.89 1021.24 1021.75 1022.05 1022.41 1022.83 1023.06 1023.36 1023.69 1024.00 1024.30 1024.56 1024.63 1024.77 1024.92 1025.08 1025.18 1025.35 1025.52 1025.53 1025.59 1025.69 1025.63 1025.59 1025.58 1025.53 1025.47 1025.41 1025.40 1025.57 1025.53 1025.59 1025.67 1025.63 1025.59 1025.66 1025.76 1025.82
1018.24 1018.76 1019.56 1020.20 1020.66 1020.92 1021.23 1021.65 1021.97 1022.00 1022.44 1022.87 1023.17 1023.52 1023.80 1024.00 1024.29 1024.55 1024.74 1024.88 1025.03 1025.13 1025.26 1025.41 1025.54 1025.61 1025.65 1025.60 1025.61 1025.53 1025.48 1025.41 1025.34 1025.29 1025.27 1025.42 1025.34 1025.38 1025.36 1025.29 1025.21 1025.25 1025.30
1017.74 1018.36 1019.05 1019.78 1020.29 1020.87 1021.29 1021.77 1022.15 1022.27 1022.50 1022.53 1022.86 1023.17 1023.54 1023.81 1024.12 1024.38 1024.65 1024.82 1024.85 1024.92 1025.07 1025.23 1025.36 1025.44 1025.60 1025.52 1025.44 1025.36 1025.33 1025.30 1025.27 1025.20 1025.09 1025.00 1025.05 1025.04 1025.01 1024.92 1024.80 1024.68 1024.64
1017.39 1018.15 1018.55 1019.13 1019.85 1020.44 1021.11 1021.57 1022.00 1022.28 1022.56 1022.73 1022.88 1023.00 1023.35 1023.67 1023.94 1024.24 1024.53 1024.62 1024.75 1024.92 1025.09 1025.30 1025.47 1025.78 1025.93 1025.89 1025.76 1025.53 1025.30 1025.13 1025.12 1025.08 1024.99 1024.96 1024.89 1024.80 1024.75 1024.63 1024.54 1024.40 1024.22
1017.05 1017.65 1018.25 1018.73 1019.51 1020.19 1020.86 1021.28 1021.69 1022.12 1022.48 1022.71 1022.88 1023.09 1023.20 1023.47 1023.77 1024.12 1024.48 1024.76 1024.90 1025.05 1025.30 1025.39 1025.52 1025.68 1025.77 1025.72 1025.66 1025.51 1025.20 1025.12 1025.00 1024.79 1024.65 1024.49 1024.39 1024.32 1024.24 1024.12 1024.01 1023.91 1023.82
1016.89 1017.23 1017.77 1018.36 1019.08 1019.88 1020.65 1021.12 1021.46 1021.89 1022.22 1022.46 1022.69 1022.98 1023.13 1023.24 1023.36 1023.70 1024.05 1024.36 1024.62 1024.96 1025.11 1025.26 1025.53 1025.58 1025.63 1025.66 1025.66 1025.38 1025.18 1024.81 1024.56 1024.35 1023.96 1023.53 1023.38 1023.26 1023.32 1023.37 1023.37 1023.24 1023.14
1017.04 1017.24 1017.48 1018.04 1018.62 1019.48 1020.38 1021.13 1021.45 1021.64 1021.98 1022.26 1022.43 1022.68 1022.88 1023.08 1023.27 1023.52 1023.82 1023.97 1024.12 1024.42 1024.74 1025.03 1025.42 1025.60 1025.62 1025.69 1025.96 1025.35 1024.82 1024.49 1023.96 1023.32 1023.35 1023.23 1023.05 1022.74 1022.87 1022.78 1022.67 1022.61 1022.48
1017.67 1017.67 1017.65 1017.70 1018.12 1018.76 1019.50 1020.43 1020.96 1021.37 1021.75 1021.84 1022.21 1022.48 1022.71 1022.92 1023.09 1023.23 1023.38 1023.48 1023.60 1024.17 1024.48 1024.76 1025.05 1025.32 1025.39 1025.35 1025.77 1025.91 1025.12 1024.21 1023.41 1022.87 1022.59 1022.48 1022.32 1022.33 1022.14 1022.04 1022.06 1022.03 1021.89
1018.06 1018.16 1017.94 1017.95 1018.03 1018.41 1019.07 1019.97 1020.79 1021.27 1021.54 1021.94 1022.25 1022.50 1022.58 1022.73 1022.87 1022.93 1023.00 1023.24 1023.53 1023.83 1024.11 1024.43 1024.78 1025.08 1025.25 1025.36 1025.48 1025.66 1025.40 1024.49 1023.76 1022.58 1022.40 1022.37 1022.22 1022.17 1021.86 1021.72 1021.49 1021.37 1021.29
1018.69 1018.53 1018.25 1018.12 1018.27 1018.44 1018.97 1019.81 1020.53 1020.99 1021.35 1021.62 1021.71 1022.02 1022.29 1022.48 1022.69 1022.85 1023.02 1023.11 1023.27 1023.54 1023.93 1024.14 1024.15 1024.41 1024.75 1025.00 1025.26 1025.29 1025.09 1024.87 1024.41 1023.06 1022.47 1022.04 1021.73 1021.64 1021.34 1021.21 1020.97 1020.78 1020.58
1018.96 1018.68 1018.53 1018.56 1018.57 1018.81 1019.01 1019.53 1020.28 1020.84 1021.34 1021.55 1021.87 1021.96 1022.21 1022.34 1022.54 1022.70 1022.83 1022.94 1023.22 1023.34 1023.45 1023.65 1023.87 1024.07 1024.35 1024.39 1024.57 1024.75 1024.92 1024.82 1024.69 1024.51 1022.55 1022.00 1021.65 1021.27 1021.01 1020.60 1020.30 1019.95 1019.79
1019.48 1019.22 1018.91 1018.98 1019.28 1019.45 1019.66 1019.88 1020.33 1020.90 1021.50 1021.83 1022.26 1022.35 1022.54 1022.77 1022.89 1022.92 1023.11 1023.22 1023.27 1023.36 1023.35 1023.41 1023.55 1023.69 1023.84 1024.02 1024.20 1024.10 1024.21 1024.27 1024.05 1024.02 1023.21 1021.79 1021.00 1020.33 1020.12 1019.87 1019.82 1019.53 1019.21
Wind_Speed
11 11 12 10 10 11 11 11 13 13 14 16 15 14 14 15 16 17 16 16 15 19 17 18 18 19 20 20 20 20 19 18 17 18 18 18 19 19 21 19 18 15 21
14 12 10 10 11 12 11 9 11 13 15 15 14 14 15 15 17 17 17 16 18 18 16 16 16 17 18 18 18 17 17 16 15 13 16 17 19 19 19 17 16 17 20
14 11 9 10 10 9 9 10 12 14 16 15 14 14 15 15 14 17 18 15 16 16 16 16 14 16 17 16 17 17 16 15 14 17 14 9 9 17 17 15 16 17 17
13 9 9 10 10 9 10 10 13 15 14 15 13 15 15 14 14 17 18 16 16 17 16 15 15 16 15 15 15 14 14 11 14 14 9 8 10 17 18 17 17 17 16
13 11 10 10 10 10 11 11 14 15 14 14 14 14 14 14 15 15 16 15 15 15 15 16 16 14 15 15 14 12 12 11 12 13 10 8 7 13 18 17 17 18 16
12 12 9 9 10 10 10 10 15 14 14 14 14 13 13 13 12 12 14 17 14 14 15 15 13 14 13 13 12 12 14 15 15 11 8 10 8 14 15 15 15 17 15
13 11 9 10 10 9 10 10 12 14 14 14 13 12 12 13 13 12 12 15 14 12 10 13 14 14 14 12 11 12 13 14 10 8 8 7 6 13 12 14 13 14 14
14 10 9 9 10 10 10 10 10 14 13 13 12 11 11 11 11 13 11 15 13 12 11 13 13 14 12 11 10 9 9 9 10 8 8 5 8 9 12 11 11 12 12
14 11 9 8 8 9 10 10 10 13 12 11 11 10 10 10 10 10 10 10 15 13 11 11 12 13 11 10 8 6 8 8 5 6 7 4 7 9 10 10 8 11 10
11 10 8 8 7 6 6 8 9 9 12 12 10 9 8 9 9 7 8 7 10 11 11 13 12 10 9 8 6 6 9 10 5 5 5 3 5 6 6 8 9 8 7
11 7 10 8 7 8 7 6 7 10 11 10 7 7 6 5 5 6 8 10 9 8 9 10 9 7 6 5 3 6 8 3 4 4 3 6 3 4 5 6 6 5 5
11 10 7 9 7 8 8 6 6 6 5 5 6 5 4 5 5 7 7 8 8 7 7 7 5 2 5 2 2 5 2 2 2 4 3 5 2 2 3 3 4 4 3
10 5 4 6 8 7 7 5 3 3 4 4 7 5 3 4 3 4 3 2 3 3 2 3 2 3 3 2 2 3 1 2 0 2 5 7 4 3 3 3 4 4 4
10 12 6 4 6 7 5 4 5 4 3 3 4 5 3 2 3 2 3 4 4 3 4 3 3 2 2 2 3 4 3 3 2 1 4 8 7 6 6 6 6 7 7
9 13 12 7 4 3 6 4 4 5 4 4 5 5 4 3 4 2 2 3 3 3 3 3 2 2 3 3 3 4 4 4 4 2 2 9 10 9 9 9 10 10 10
8 10 13 12 8 4 3 2 1 2 6 4 4 5 5 3 4 3 3 2 3 3 3 3 3 3 3 3 4 5 5 4 4 4 3 5 11 12 13 13 13 13 13
7 9 11 12 10 9 6 5 3 1 2 3 4 6 7 4 4 4 4 4 4 3 4 2 2 1 2 3 5 5 4 5 5 6 5 4 5 12 13 17 17 16 16
8 8 8 9 11 10 7 6 4 4 3 2 0 2 6 5 4 4 2 2 1 2 2 2 2 2 3 3 3 4 4 4 6 6 5 4 4 4 11 17 19 19 20
9 9 8 9 9 10 8 6 5 6 4 4 3 2 3 6 5 4 3 3 2 1 2 2 3 3 3 4 4 5 5 4 6 5 7 7 7 7 5 9 19 19 21
6 9 9 7 9 8 5 4 4 4 4 4 4 4 5 3 5 5 4 5 5 4 4 3 4 3 4 3 4 5 4 5 5 6 8 7 8 10 8 9 6 8 19
3 3 7 8 9 10 7 5 4 5 5 4 4 6 6 5 6 4 4 5 5 5 4 4 3 5 3 2 2 4 5 9 11 10 7 7 9 9 8 8 8 7 7
4 5 4 7 8 8 8 5 3 3 2 3 4 4 5 5 5 5 5 5 5 3 4 4 4 2 3 3 3 0 4 4 6 9 8 8 11 5 7 9 10 9 10
1 4 4 4 4 6 9 8 3 3 2 2 2 3 5 6 6 5 5 4 3 4 5 5 5 6 6 2 5 3 3 4 3 3 5 5 7 5 6 8 8 10 10
2 2 4 4 3 1 10 8 6 4 3 3 4 3 4 6 5 5 5 4 4 3 4 5 4 6 4 7 1 5 7 3 3 6 2 4 5 6 7 5 6 8 9
5 3 2 3 4 3 4 9 6 5 2 2 3 3 3 3 4 4 4 4 4 3 4 5 4 5 5 5 4 2 3 3 5 6 11 7 4 4 7 8 8 9 10
5 6 6 7 6 6 5 7 5 6 3 2 2 3 3 3 3 4 5 4 4 3 3 3 5 5 5 6 5 5 5 5 3 5 7 10 13 9 8 7 8 8 9
Wind_Direction
120 123 117 111 91 87 92 98 104 102 92 82 77 79 79 76 75 72 73 71 68 64 65 74 73 72 70 67 67 66 66 68 75 73 69 67 63 64 67 64 65 68 73
120 119 128 112 110 95 99 111 116 106 94 88 84 86 83 77 81 76 67 65 65 67 65 69 67 70 63 61 63 64 60 51 48 70 61 54 62 61 64 71 70 73 70
110 118 108 105 103 103 93 107 114 105 97 91 91 91 87 83 85 90 82 75 79 80 75 70 72 69 61 60 62 59 53 61 69 74 68 66 58 66 65 64 74 77 75
115 120 115 105 101 104 100 103 112 101 100 97 101 95 89 80 89 95 88 81 76 81 80 78 79 77 76 72 70 70 69 72 68 60 58 52 56 63 65 63 64 67 65
124 103 112 108 106 95 83 108 116 104 101 97 94 96 91 84 71 90 93 87 82 79 81 80 82 84 81 72 65 50 34 13 61 73 58 55 60 66 64 67 69 65 66
108 107 113 117 117 104 90 101 114 109 102 98 96 100 92 87 73 65 88 87 84 92 92 92 91 88 79 67 54 40 27 7 63 57 66 50 55 67 71 66 70 70 68
106 114 121 119 110 105 94 87 104 108 106 101 99 98 92 89 75 69 86 97 96 90 80 97 92 91 83 73 57 35 19 10 87 72 64 53 56 58 64 61 60 65 64
117 119 126 113 111 104 94 90 91 108 103 102 100 100 97 88 77 69 55 109 109 90 73 86 94 93 85 75 58 31 12 3 83 77 74 58 55 74 71 68 59 63 64
122 122 128 126 115 108 110 105 100 109 102 95 99 86 73 64 64 69 50 93 99 89 66 83 75 85 84 80 64 28 355 1 103 95 84 63 62 82 82 72 82 81 76
119 137 141 132 147 132 126 108 104 111 106 102 101 101 99 93 92 90 81 59 92 97 83 70 71 75 75 64 45 358 351 338 90 86 85 80 75 77 83 95 82 87 90
137 162 144 148 152 142 128 122 109 107 113 116 116 136 151 137 149 100 71 59 70 88 96 93 75 59 92 91 37 323 326 307 43 104 92 99 102 100 106 106 107 105 114
147 154 148 154 155 150 141 156 145 138 154 164 143 185 213 102 81 111 94 89 80 89 98 73 65 300 252 215 186 279 285 349 35 107 112 130 132 112 126 122 142 153 163
149 131 164 165 150 151 129 172 149 154 170 156 148 195 117 108 134 128 133 137 128 181 140 128 190 246 272 5 198 259 22 328 33 107 153 164 197 206 191 210 213 210 209
158 152 166 217 174 157 138 162 156 152 154 145 154 144 126 123 173 175 163 183 171 183 162 198 201 270 329 292 321 321 309 311 312 110 175 178 209 233 239 220 231 229 232
166 156 162 180 203 178 154 173 160 155 149 169 152 153 154 178 171 187 184 149 174 176 169 193 205 186 251 273 271 267 276 275 298 297 179 198 207 230 247 245 240 236 239
167 160 161 169 176 205 202 143 184 157 160 169 157 163 197 182 167 182 176 187 191 168 207 193 203 212 234 235 256 263 266 274 271 266 265 205 211 221 236 250 250 246 245
167 166 165 170 165 181 170 160 181 263 336 172 171 172 175 208 180 182 183 193 201 192 211 204 249 268 294 282 235 251 238 255 271 276 268 249 215 228 230 239 247 249 246
163 176 171 164 169 170 175 170 173 170 182 236 310 195 178 188 216 194 155 199 229 171 176 206 208 244 259 263 282 280 260 246 264 261 263 274 275 242 235 239 241 246 250
172 172 179 158 156 158 177 174 169 166 173 185 215 247 263 183 200 179 179 214 206 212 231 245 247 211 226 246 251 253 252 246 246 245 241 237 236 244 243 234 234 240 244
185 177 176 164 158 153 168 169 163 166 177 180 188 184 208 248 201 199 193 196 200 191 215 210 231 254 232 256 289 284 274 254 243 235 238 229 226 230 228 235 234 238 238
314 233 186 170 164 157 169 178 177 188 183 187 180 181 193 202 221 235 201 213 206 201 196 211 213 236 273 222 318 294 259 252 251 249 248 245 249 243 236 239 239 241 245
288 276 268 199 176 171 158 162 163 150 179 179 185 196 192 193 217 216 217 219 212 182 200 220 213 228 236 179 215 314 301 322 254 245 243 234 243 233 229 234 237 237 241
92 315 275 269 217 171 144 141 126 99 82 143 186 189 200 201 218 225 226 224 223 189 203 204 212 206 246 245 210 207 279 246 325 260 253 251 248 239 249 253 240 241 243
13 298 291 296 268 176 144 144 156 173 175 183 179 183 192 199 217 228 234 232 219 200 205 227 217 219 203 247 164 237 251 270 301 299 280 271 249 246 250 241 238 237 235
27 59 84 57 45 55 70 145 173 129 124 85 74 142 187 209 231 240 235 237 234 221 222 225 228 222 226 238 213 218 233 250 249 251 291 288 279 268 254 253 243 243 235
46 47 67 96 66 46 50 54 103 134 185 160 78 66 64 66 52 43 33 15 344 316 278 251 247 233 233 236 246 234 219 234 234 231 268 287 287 283 250 246 242 244 245